TimeCDT,TemperatureF,Dew PointF,Humidity,Sea Level PressureIn,VisibilityMPH,Wind Direction,Wind SpeedMPH,Gust SpeedMPH,PrecipitationIn,Events,Conditions,WindDirDegrees,DateUTC
12:54 AM,82.0,72.0,71,29.90,10.0,South,6.9,-,N/A,,Scattered Clouds,180,2013-07-10 05:54:00
1:54 AM,81.0,72.0,74,29.88,10.0,SSW,6.9,-,N/A,,Mostly Cloudy,200,2013-07-10 06:54:00
2:54 AM,81.0,71.1,72,29.87,10.0,South,5.8,-,N/A,,Scattered Clouds,190,2013-07-10 07:54:00
3:22 AM,80.6,71.6,74,29.88,10.0,South,6.9,-,N/A,Thunderstorm,Mostly Cloudy,190,2013-07-10 08:22:00
3:49 AM,80.6,69.8,70,29.86,10.0,SSE,10.4,-,N/A,,Clear,160,2013-07-10 08:49:00
3:54 AM,81.0,70.0,69,29.84,10.0,South,6.9,-,N/A,,Clear,170,2013-07-10 08:54:00
4:54 AM,79.0,70.0,74,29.85,10.0,South,3.5,-,N/A,,Clear,180,2013-07-10 09:54:00
5:54 AM,77.0,71.1,82,29.86,10.0,SSW,6.9,-,N/A,,Clear,210,2013-07-10 10:54:00
6:54 AM,80.1,71.1,74,29.88,10.0,SW,6.9,-,N/A,,Overcast,230,2013-07-10 11:54:00
7:40 AM,78.8,71.6,78,29.91,10.0,WSW,5.8,-,0.00,Rain-Thunderstorm,Light Rain,240,2013-07-10 12:40:00
7:54 AM,78.1,72.0,81,29.89,10.0,WSW,5.8,-,0.00,Rain-Thunderstorm,Light Thunderstorms and Rain,250,2013-07-10 12:54:00
8:43 AM,75.2,68.0,78,29.95,10.0,West,6.9,-,0.00,,Overcast,270,2013-07-10 13:43:00
8:54 AM,75.9,70.0,82,29.94,10.0,WSW,13.8,-,0.00,,Overcast,240,2013-07-10 13:54:00
9:19 AM,78.8,71.6,78,29.98,10.0,West,3.5,-,N/A,,Overcast,270,2013-07-10 14:19:00
9:54 AM,79.0,66.9,66,29.97,10.0,NNE,11.5,-,0.00,,Overcast,30,2013-07-10 14:54:00
10:54 AM,81.0,68.0,65,29.99,10.0,NE,8.1,-,N/A,,Overcast,40,2013-07-10 15:54:00
11:54 AM,84.9,68.0,57,29.98,10.0,North,6.9,-,N/A,,Partly Cloudy,10,2013-07-10 16:54:00
12:54 PM,86.0,64.0,48,29.98,10.0,NNW,11.5,-,N/A,,Clear,330,2013-07-10 17:54:00
1:54 PM,87.1,64.9,48,29.97,10.0,Variable,4.6,-,N/A,,Clear,0,2013-07-10 18:54:00
2:54 PM,88.0,64.0,45,29.95,10.0,NNW,11.5,-,N/A,,Clear,340,2013-07-10 19:54:00
3:54 PM,88.0,64.9,46,29.94,10.0,NNW,15.0,19.6,N/A,,Clear,330,2013-07-10 20:54:00
4:54 PM,88.0,64.0,45,29.93,10.0,NW,15.0,-,N/A,,Clear,320,2013-07-10 21:54:00
5:54 PM,86.0,62.1,44,29.92,10.0,NW,16.1,21.9,0.00,Rain,Light Rain,320,2013-07-10 22:54:00
6:54 PM,82.9,62.1,49,29.93,10.0,NNW,12.7,-,0.00,,Clear,330,2013-07-10 23:54:00
7:54 PM,79.0,62.1,56,29.94,10.0,North,10.4,-,N/A,,Clear,350,2013-07-11 00:54:00
8:54 PM,73.9,61.0,64,29.96,10.0,North,6.9,-,N/A,,Clear,10,2013-07-11 01:54:00
9:54 PM,72.0,61.0,68,29.99,10.0,NNE,4.6,-,N/A,,Clear,30,2013-07-11 02:54:00
10:54 PM,69.1,59.0,70,30.01,10.0,North,5.8,-,N/A,,Clear,10,2013-07-11 03:54:00
11:54 PM,66.0,59.0,78,30.02,10.0,NNE,5.8,-,N/A,,Clear,20,2013-07-11 04:54:00